Location: Wildcat Hills Observatory
(41.6350°N, 103.6812°W)
Time: 20:45:05
(UTC-07:00)

NOSS 3-2 (A) - Pass Details

Date: 23 June 2018
Orbit: 841 x 1367 km, 63.4° (Epoch: 17 November)

Event Time Altitude Azimuth Distance (km) Brightness Sun altitude
Rises 22:01:06 0° 325° (NW) 3,985 8.7 -13.3°
Reaches altitude 10° 22:03:42 10° 328° (NNW) 3,093 7.5 -13.6°
Maximum altitude 22:11:16 74° 53° (NE) 1,319 4.1 -14.5°
Enters shadow 22:17:23 20° 136° (SE) 2,666 5.1 -15.2°
